Regional Weather Roundup
Issued by NWS

Home | Current Version | Previous Version | Graphics & Text | Print | Product List | Glossary Off
Versions: 1 2 3 4 5 6 7 8 9 10 11 12 13 14 15 16 17 18 19 20 21 22 23 24 25 26 27 28 29 30 31 32 33 34 35 36 37 38 39 40 41 42 43 44 45 46 47 48 49 50

000
ASUS43 KTOP 062059
RWRKS

WEATHER ROUNDUP FOR KANSAS
NATIONAL WEATHER SERVICE GOODLAND KS
400 PM CDT WED MAY 06 2015

NOTE:  "FAIR" INDICATES FEW OR NO CLOUDS BELOW 12,000 FEET WITH NO
SIGNIFICANT WEATHER AND/OR OBSTRUCTIONS TO VISIBILITY.

KSZ001>006-013>018-027>032-041>047-062200-
NORTHWEST KANSAS

CITY           SKY/WX    TMP DP  RH WIND       PRES   REMARKS
GOODLAND       PTSUNNY   63  54  72 S9        29.65F
HAYS           CLOUDY    77  59  53 S33G39    29.58F
HILL CITY      PTSUNNY   75  56  51 SW20G30   29.60F
RUSSELL        PTSUNNY   76  60  57 S35G45    29.58F
$$

KSZ061>065-074>080-084>089-062200-
SOUTHWEST KANSAS

CITY           SKY/WX    TMP DP  RH WIND       PRES   REMARKS
DODGE CITY     MOSUNNY   81  50  33 SW28G39   29.65F
ELKHART          N/A     78  50  37 MISG        N/A
GARDEN CITY    MOSUNNY   78  53  41 S24G32    29.64F
GREAT BEND     MOSUNNY   75  61  60 S29G38    29.62F
LIBERAL        MOSUNNY   79  55  44 S25G32    29.68F
$$

KSZ066>073-081>083-090>101-062200-
SOUTHEAST KANSAS

CITY           SKY/WX    TMP DP  RH WIND       PRES   REMARKS
CHANUTE        CLOUDY    75  64  68 S20G25    29.89F
HUTCHINSON     PTSUNNY   76  66  71 SE29G37   29.70F
MEDICINE LODGE   N/A     80  63  55 S24G38    29.69F
NEWTON         PTSUNNY   73  63  68 S24G33    29.78F
PARSONS        CLOUDY    74  64  71 S7        29.91F
WICHITA INTL   PTSUNNY   75  66  73 S25G38    29.76F
WICHITA JABRA  PTSUNNY   74  65  73 S23G37    29.77F
WICHITA MCCONL PTSUNNY   73  66  78 SE23G37   29.79F
WINFIELD       CLOUDY    74  67  78 SE21G29   29.82F
$$

KSZ007>012-019>026-033>040-048>060-102>105-062200-
NORTHEAST KANSAS

CITY           SKY/WX    TMP DP  RH WIND       PRES   REMARKS
CONCORDIA      PTSUNNY   69  62  78 SE22G35   29.69F
EMPORIA        CLOUDY    69  63  81 SE22G31   29.84F
LAWRENCE       CLOUDY    68  60  75 SE10      29.90F
MANHATTAN      CLOUDY    72  64  76 S25G41    29.78F
OLATHE IND     CLOUDY    67  61  81 SE13      29.93F
OLATHE EXE     CLOUDY    64  60  87 SE8       29.93F
SALINA         PTSUNNY   73  64  73 SE25G38   29.69F THUNDER
TOPEKA BILLARD CLOUDY    70  60  70 S20G33    29.87F
TOPEKA FORBES  CLOUDY    70  60  70 SE22      29.87F
$$


USA.gov is the U.S. government's official web portal to all federal, state and local government web resources and services.